Weather History for Cleveland Cuyahoga, OH

Change the Weather History Date:

Friday, March 15, 2013

  Actual Average Record
Temperature  
Mean Temperature 37 °F -  
Max Temperature 41 °F 41 °F 77 °F (2012)
Min Temperature 33 °F 28 °F 15 °F (2005)
Degree Days  
Heating Degree Days 28    
Moisture  
Dew Point 30 °F    
Average Humidity 78    
Maximum Humidity 93    
Minimum Humidity 60    
Precipitation  
Precipitation 0.00 in - - ()
Sea Level Pressure  
Sea Level Pressure 29.90 in    
Wind  
Wind Speed 12 mph (WNW)    
Max Wind Speed 17 mph    
Max Gust Speed 21 mph    
Visibility 5 miles    
Events Snow    
Averages and records for this station are not official NWS values.
T = Trace of Precipitation, MM = Missing Value Source: NWS Daily Summary

Daily Weather History Graph

Daily Weather History Graph

Search for Another Location

Airport:

Trip Planner

Search our weather history database for the weather conditions in past years. The results will help you decide how hot, cold, wet, or windy it might be!

Date:

Astronomy

Mar. 15, 2013 Rise Set
Actual Time 7:37 AM EDT 7:32 PM EDT
Civil Twilight 7:09 AM EDT 8:00 PM EDT
Nautical Twilight 6:37 AM EDT 8:32 PM EDT
Astronomical Twilight 6:04 AM EDT 9:05 PM EDT
Moon 9:23 AM EDT (3/15) 11:49 PM EDT (3/15)
Length of Visible Light 12h 50m
Length of Day
11h 55m
Waxing Crescent, 15% of the Moon is Illuminated
Mar 15
Waxing Crescent
Mar 19
First Quarter
Mar 27
Full
Apr 3
Last Quarter
Apr 10
New

Hourly Weather History & Observations

Time (EDT) Temp. Windchill Dew Point Humidity Pressure Visibility Wind Dir Wind Speed Gust Speed Precip Events Conditions
6:45 AM 35.6 °F 26.6 °F 23.0 °F 60% 29.97 in 10.0 mi West 13.8 mph - N/A   Overcast
7:45 AM 33.8 °F 25.3 °F 24.8 °F 70% 29.95 in 10.0 mi WSW 11.5 mph - N/A   Overcast
8:45 AM 35.6 °F 27.5 °F 28.4 °F 75% 29.93 in 10.0 mi WSW 11.5 mph 20.7 mph N/A   Overcast
9:45 AM 35.6 °F 26.6 °F 28.4 °F 75% 29.94 in 6.0 mi West 13.8 mph - N/A   Haze
10:45 AM 35.6 °F 26.6 °F 30.2 °F 81% 29.93 in 6.0 mi West 13.8 mph - N/A   Haze
11:45 AM 39.2 °F 31.2 °F 30.2 °F 70% 29.91 in 6.0 mi WNW 13.8 mph - N/A   Haze
12:45 PM 41.0 °F 34.3 °F 30.2 °F 65% 29.89 in 6.0 mi WNW 11.5 mph - N/A   Haze
1:45 PM 41.0 °F 32.8 °F 30.2 °F 65% 29.90 in 6.0 mi WNW 16.1 mph - N/A   Haze
2:45 PM 41.0 °F 32.5 °F 30.2 °F 65% 29.88 in 5.0 mi WNW 17.3 mph - N/A   Haze
3:45 PM 39.2 °F 31.2 °F 30.2 °F 70% 29.86 in 5.0 mi WNW 13.8 mph - N/A   Haze
4:45 PM 39.2 °F 32.0 °F 32.0 °F 75% 29.86 in 4.0 mi NW 11.5 mph - N/A   Haze
5:10 PM 37.4 °F 28.9 °F 30.2 °F 75% 29.87 in 4.0 mi NW 13.8 mph - N/A   Haze
5:45 PM 37.4 °F 29.8 °F 30.2 °F 75% 29.87 in 3.0 mi NW 11.5 mph - N/A   Haze
6:10 PM 35.6 °F 28.6 °F 32.0 °F 87% 29.87 in 2.5 mi NW 9.2 mph - N/A Snow Light Snow Showers
6:45 PM 33.8 °F 26.4 °F 32.0 °F 93% 29.88 in 1.5 mi NW 9.2 mph - N/A Snow Light Snow
7:45 PM 33.8 °F 27.7 °F 32.0 °F 93% 29.89 in 1.0 mi NW 6.9 mph - N/A Snow Light Snow
8:45 PM 33.8 °F 29.6 °F 32.0 °F 93% 29.89 in 1.5 mi North 4.6 mph - N/A Snow Light Snow
9:45 PM 33.8 °F - 32.0 °F 93% 29.88 in 1.5 mi Calm Calm - N/A Snow Light Snow
10:45 PM 33.8 °F - 32.0 °F 93% 29.88 in 1.5 mi Calm Calm - N/A Snow Light Snow